Volver al catálogo

COSMOS 917 DEB

ActivoHEO
NORAD 27887·DEBRIS·🇷🇺 Russia

Lanzado Jun 16, 1977 desde Plesetsk Cosmodrome

Loading…

Próximos Pases (próximas 24 horas)

TLE

ActualizadoSource: Space-Track

Época: Sep 10, 2026, 23:04 UTC

1 27887U 77047K   26253.96146124  .00000431  00000-0  00000+0 0  9995
2 27887  63.2068 227.5973 6740447  10.8524 358.2617  1.97905098 29692

Sigue COSMOS 917 DEB en tiempo real con AllMySat

Download on the App Store